sat.trackr.live / text

‹ back to catalog

STARLINK-32556

NORAD 61858 · 2024-202P

PAYLOAD ACTIVE UNKNOWN

§ Identity

Operator
Country
US
Launch date
2024-11-07
Launch site
AFETR
Launch vehicle
Mass (kg)
RCS (m²)

Purposes: comms

External: N2YO · Heavens-Above · Gunter

§ Orbital elements

Epoch: 2026-09-21T07:03:52.322112Z

Period
94.27 min
Inclination
43.0003°
Eccentricity
0.0000773
Mean motion
15.27574831 rev/d
Perigee alt
482.5 km
Apogee alt
483.6 km
Semi-major
6,861.2 km
B*
9.4409e-6
RAAN
213.2458°
Arg perigee
272.0112°
Mean anomaly
88.0651°
Rev number
10,525

§ Raw data

STARLINK-325561 61858U 24202P   26264.29435558 -.00000002  00000+0  94409-5 0  99922 61858  43.0003 213.2458 0000773 272.0112  88.0651 15.27574831105251

JSON: /api/v1/satellites/61858 · /tle

For live sub-satellite position, see the globe view (requires WebGL).

§ Visibility from observer

Set your observer location to see the next 7 days of passes ≥ 10°. The values pass through the URL so the page stays shareable.

No JS? Fill the form by hand. The geolocation button needs JavaScript.